FENGYUN 1C DEB

Satellite information

Favourite Embed

Satellite Type and Status

DEBRISIN ORBIT

Key statistics

Satellite FENGYUN 1C DEB at a glance.

Uptime

9663

Days in orbit

Revolutions

≈ 14.1

Per day

Orbit

SSO

Sun Synchronous Orbit

Inclination

99.1

Latest

Satellite identification and parameters

Extended collection of information and parameters for FENGYUN 1C DEB.

Object identification

Identified? True

Debris? True

Object name: FENGYUN 1C DEB

International designator: 1999-025QB

Object number (NORAD): 30074

Object ID (CCSDS): 30074

Country: PEOPLES REPUBLIC OF CHINA (PRC)

Current information (Y/N): Y

RCS size: SMALL

Orbital parameters

Period: 101.951 minutes

Inclination: 99.1329 deg

SMA: 7229.173 km

Apoapsis: 919.822 km

Periapsis: 782.255 km

RAAN: 0.6698 deg

Eccentricy: 0.00951467

Argument of periapsis: 295.1187 deg

Mean anomaly: 64.0135 deg

Mean motion: 14.12439325 rev/day

Mean motion (dot): 0.0000317 rev/day2

B* drag term: 0.0016695554 1/REarth

Two-line elements (TLE)

Creation date: Oct. 23, 2025, 2:46 a.m.

Reference frame: TEME

Reference center: EARTH

Epoch: Oct. 22, 2025, 10:02 a.m. UTC

TLE line 0: 0 FENGYUN 1C DEB

TLE line 1: 1 30074U 99025QB 25295.41859912 .00003170 00000-0 16696-2 0 9992

TLE line 2: 2 30074 99.1329 0.6698 0095147 295.1187 64.0135 14.12439325959373

Live tracking on map

Real-time ground track for satellite FENGYUN 1C DEB.

In-orbit conjunctions

A list of the most updated potential collisions computed for object FENGYUN 1C DEB.

Target Orbit TCA Probability of collision Miss distance Type
COSMOS 970 DEB LEO 2025-01-06 02:55:24 0.0009202748 55.0 (m) DEBRIS
CZ-6A DEB SSO 2024-11-16 13:02:29 0.000165436 463.0 (m) DEBRIS

Associated space launch

Chinese polar orbiting meteorological satellite

FENGYUN 1C DEB was lifted into orbit during the mission ‘Long March 4B | Feng Yun 1C’, on board a Long March 4B space rocket.

The launch took place on May 10, 1999, 1:33 a.m. from Launch Complex 7.

For more information about the launch, click the button.

Launch to space Long March 4B | Feng Yun 1C
Long March 4B | Feng Yun 1C

Agency: N/A

Status: Launch Successful

Launch date: May 10, 1999, 1:33 a.m. UTC

Rocket: Long March 4B

Launch pad: Launch Complex 7

Location: Taiyuan Satellite Launch Center, People's Republic of China

...

Latest news about this satellite

There are no fresh news available about this satellite. Check back as we update our databases every day.


Newsletter sign-up

Weekly statistics, charts and insights to help you stay on top of the space industry.